Regional Weather Roundup
Issued by NWS

Home | Current Version | Previous Version | Graphics & Text | Print | Product List | Glossary Off
Versions: 1 2 3 4 5 6 7 8 9 10 11 12 13 14 15 16 17 18 19 20 21 22 23 24 25 26 27 28 29 30 31 32 33 34 35 36 37 38 39 40 41 42 43 44 45 46 47 48 49 50

000
ASUS43 KMKX 211611
RWRWI

WISCONSIN REGIONAL WEATHER ROUNDUP
NATIONAL WEATHER SERVICE MILWAUKEE/SULLIVAN WI
1000 AM CST SUN DEC 21 2014

NOTE: "FAIR" INDICATES FEW OR NO CLOUDS BELOW 12,000 FEET WITH NO
SIGNIFICANT WEATHER AND/OR OBSTRUCTIONS TO VISIBILITY.

WIZ001-002-006>008-014>016-023>028-211700-
NORTHWEST WISCONSIN

CITY           SKY/WX    TMP DP  RH WIND       PRES   REMARKS
SUPERIOR ARPT  CLOUDY    33  30  89 S6        29.91S FOG     WCI  27
ASHLAND        CLOUDY    33  28  81 S9        29.94F WCI  25
HAYWARD        CLOUDY    31  28  89 S12G20    29.92S FOG     WCI  22
SIREN          LGT SNOW  32  31  97 S9        29.90F WCI  24
CUMBERLAND     LGT SNOW  32  30  93 SE12      29.90F WCI  23
RICE LAKE      SNOW      31  30  96 SE12      29.94S VSB 1/2 WCI  22
CHETEK         CLOUDY    31  30  97 SE12G17   29.94S FOG     WCI  22
LADYSMITH      CLOUDY    32  31  94 SE13      29.97S FOG     WCI  22
EAU CLAIRE     CLOUDY    32  30  92 SE12      29.95F FOG     WCI  23
MENOMONIE      FOG       32  32  99 SE12      29.94F VSB 1   WCI  23
NEW RICHMOND   RAIN      33  33 100 SE13      29.90S WCI  23
OSCEOLA        LGT SNOW  33  33 100 SE13      29.91F WCI  24
$$

WIZ003>005-009-010-017-018-211700-
NORTH CENTRAL WISCONSIN

CITY           SKY/WX    TMP DP  RH WIND       PRES   REMARKS
MANITOWISH WTR CLOUDY    29  29  99 S8        29.95F FOG     WCI  21
ARBOR VITAE    CLOUDY    32  30  92 S10       29.97S FOG     WCI  23
WOODRUFF       CLOUDY    32  30  92 S10       29.97S FOG     WCI  23
RHINELANDER    CLOUDY    28  26  92 SE8       29.99F FOG     WCI  20
EAGLE RIVER    CLOUDY    29  28  98 S7        29.99R FOG     WCI  21
LAND O LAKES   CLOUDY    29  28  94 S6        29.99S FOG     WCI  23
PHILLIPS       CLOUDY    30  28  92 S8        29.96S FOG     WCI  22
TOMAHAWK       CLOUDY    29  28  94 CALM      30.00S FOG
MEDFORD        FOG       29  28  97 SE10G17   29.98S VSB 1   WCI  20
MERRILL        CLOUDY    30  29  99 S7        30.01F FOG     WCI  23
$$

WIZ029-030-035-036-043>047-211700-
CENTRAL WISCONSIN

CITY           SKY/WX    TMP DP  RH WIND       PRES   REMARKS
WAUSAU         CLOUDY    30  28  92 S9        30.02F FOG     WCI  22
MOSINEE        CLOUDY    30  30 100 SE10      30.04S FOG     WCI  21
MARSHFIELD     CLOUDY    31  29  92 SE10      30.00F FOG     WCI  22
STEVENS POINT  CLOUDY    30  28  95 SE9       30.05F FOG     WCI  21
WAUPACA        CLOUDY    34  31  91 SE7       30.09S FOG     WCI  28
WAUTOMA        CLOUDY    33  33 100 SE6       30.08F FOG     WCI  27
WISC RAPIDS    CLOUDY    32  29  88 S9        30.05F FOG     WCI  24
CAMP DOUGLAS   CLOUDY    32  32 100 SE8       30.03F FOG     WCI  25
$$

WIZ011>013-019>022-031-037>040-048>050-211700-
NORTHEAST WISCONSIN

CITY           SKY/WX    TMP DP  RH WIND       PRES   REMARKS
ANTIGO         FOG       27  27 100 SE12      30.03S VSB<1/4 WCI  17
SHAWANO        CLOUDY    33  30  88 CALM      30.10S FOG
OCONTO         CLOUDY    32  30  91 S3        30.12S
STURGEON BAY   CLOUDY    34  28  80 S9        30.14S WCI  26
GREEN BAY      LGT SNOW  33  30  88 S8        30.12S FOG     WCI  26
MANITOWOC      CLOUDY    36  33  89 S15       30.14F WCI  27
APPLETON       CLOUDY    32  30  93 S13       30.10S FOG     WCI  22
CLINTONVILLE   CLOUDY    32  30  93 S8        30.09S FOG     WCI  25
OSHKOSH        CLOUDY    33  30  88 S10       30.11S FOG     WCI  25
$$

WIZ032>034-041-042-053>061-211700-
SOUTHWEST WISCONSIN

CITY           SKY/WX    TMP DP  RH WIND       PRES   REMARKS
LA CROSSE      CLOUDY    37  33  85 S12       29.99S FOG     WCI  29
SPARTA         CLOUDY    34  33  96 S8G18     30.02S FOG     WCI  27
VIROQUA        CLOUDY    33  33 100 S14       29.98F VSB 1/4 WCI  23
BOSCOBEL       CLOUDY    37  33  85 S7G17     30.05F FOG     WCI  32
PRAIRIE DU CHI CLOUDY    37  33  87 S6G17     30.03F FOG     WCI  32
PLATTEVILLE    CLOUDY    35  34  96 S13       30.07F WCI  26
$$

WIZ056-057-062-063-064-067-068-211700-
SOUTH CENTRAL WISCONSIN

CITY           SKY/WX    TMP DP  RH WIND       PRES   REMARKS
REEDSBURG      CLOUDY    33  32  97 SE7       30.05F FOG     WCI  26
BARABOO/DELLS  CLOUDY    33  32  96 S13       30.06F FOG     WCI  24
LONE ROCK      CLOUDY    40  32  73 SE10      30.07F HAZE    WCI  33
MINERAL POINT  CLOUDY    34  34 100 S10       30.06S FOG     WCI  26
MADISON        CLOUDY    33  31  92 S12       30.11R FOG     WCI  24
MIDDLETON      CLOUDY    35  33  94 S9        30.10R WCI  28
WATERTOWN      CLOUDY    33  32  96 S9        30.12S FOG     WCI  25
MONROE         CLOUDY    32  32 100 S10       30.10R FOG     WCI  24
JANESVILLE     CLOUDY    36  32  87 S12       30.12F FOG     WCI  27
$$

WIZ051-052-058>065-066-070>072-211700-
SOUTHEAST WISCONSIN

CITY           SKY/WX    TMP DP  RH WIND       PRES   REMARKS
MILWAUKEE      CLOUDY    35  28  75 S9        30.16F WCI  28
WAUKESHA       CLOUDY    30  28  93 S6        30.15S FOG     WCI  24
MILWAUKEE/TIMM CLOUDY    34  28  80 S7        30.16F HAZE    WCI  28
RACINE         CLOUDY    35  28  75 S9        30.18F WCI  28
BURLINGTON     CLOUDY    32  29  89 S3        30.15F
KENOSHA        CLOUDY    35  29  78 S10       30.16F WCI  27
FOND DU LAC    CLOUDY    33  30  88 S13       30.12S FOG     WCI  24
SHEBOYGAN      CLOUDY    34  30  85 S12       30.14F FOG     WCI  25
WEST BEND      CLOUDY    32  30  93 S7        30.14S FOG     WCI  26
JUNEAU         CLOUDY    32  30  94 S10       30.12S FOG     WCI  24
$$

LSZ147-162-211700-
LAKE SUPERIOR

STATION/POSITION TIME  TEMP    WIND        PRES    WAVE
                       AIR SEA DIR/SP/G            HT/PER
                 (UTC) (F)     (DEG/KT/KT) (MB)    (FT/S)
DEVILS ISLAND    1600   33     130/  5/  9 1015.1F
PORT WING        1540   33      CALM  /  3 1013.9S
SAXON HARBOR     1540   35     200/  4/  7 1014.2F
$$

LMZ867-665-643>646-211700-
LAKE MICHIGAN

STATION/POSITION TIME  TEMP    WIND        PRES    WAVE
                       AIR SEA DIR/SP/G            HT/PER
                 (UTC) (F)     (DEG/KT/KT) (MB)    (FT/S)
CHAMBERS ISLAND  1500   33     160/  4/ 10 1020.3F
NORTHPORT PIER   1539   35     150/  5/ 11 1020.7F
SISTER BAY       1513          180/  8/ 10   N/A
ALGOMA LAKESHORE 1514          230/ 12/ 14   N/A
KEWAUNEE LAKESHO 1500   34     200/  9/ 11 1019.8F
SHEBOYGAN LAKESH 1600   36 34  180/ 21/ 23 1021.5F
PORT WASHINGTON  1540   35     180/  8/ 14 1021.7F
MILWAUKEE LAKESH 1500   34     190/  8/ 10   N/A
KENOSHA   LAKESH 1600   34     170/ 17/ 19 1021.3F
$$

TC  - TEMPERATURE IN CELSIUS
VSB - VISIBILITY IN STATUTE MILES
WCI - WIND CHILL INDEX
HX  - HEAT INDEX



USA.gov is the U.S. government's official web portal to all federal, state and local government web resources and services.